This demonstration page uses our WeatherBlox Daily Observations layout. Learn more.

Left ArrowRight Arrow

Hourly Observations for April 26, 2017

Temp ( °F °C ) Dew Point ( °F °C ) Humidity (%) Winds ( mph kmh ) Pressure ( in mb ) Visibility ( mi km ) Precip ( " mm )
12:59 am 00:59 Cloudy with Rain 64 17.8 61 16.1 90 90 WNW 12 19 29.68 1005 3 5 0.18 4.57
1:59 am 01:59 Cloudy with Light Rain 63 17.2 60 15.6 90 90 WNW 13 20 29.68 1005 5 8 0.06 1.52
2:19 am 02:19 Cloudy with Light Rain 63 17.2 60 15.6 90 90 WNW 10 17 29.68 1005 6 10 0.02 0.51
2:59 am 02:59 Cloudy with Light Rain 62 16.7 60 15.6 93 93 WNW 9 15 29.67 1005 6 10 0.05 1.27
3:14 am 03:14 Cloudy with Mist and Fog 62 16.7 60 15.6 93 93 WNW 8 13 29.68 1005 5 8 0.01 0.25
3:59 am 03:59 Cloudy with Mist and Fog 62 16.7 59 15 90 90 W 12 19 29.68 1005 3 5 0.01 0.25
4:59 am 04:59 Cloudy 61 16.1 59 15 93 93 WNW 14 22 29.70 1006 10 16 0.00 0.00
5:59 am 05:59 Cloudy 61 16.1 58 14.4 90 90 WNW 12 19 29.71 1006 9 14 0.00 0.00
6:33 am 06:33 Cloudy with Mist and Fog 61 16.1 58 14.4 90 90 WNW 9 15 29.74 1007 1 2 0.00 0.00
6:59 am 06:59 Cloudy with Mist and Fog 61 16.1 58 14.4 90 90 WNW 12 19 29.74 1007 1 2 0.00 0.00
7:09 am 07:09 Cloudy with Mist and Fog 61 16.1 58 14.4 90 90 WNW 8 13 29.74 1007 6 10 0.00 0.00
7:28 am 07:28 Cloudy 61 16.1 58 14.4 90 90 WNW 9 15 29.74 1007 7 11 0.00 0.00
7:59 am 07:59 Mostly Cloudy 62 16.7 58 14.4 86 86 W 9 15 29.76 1008 10 16 0.00 0.00
8:59 am 08:59 Cloudy 62 16.7 58 14.4 86 86 WNW 10 17 29.78 1009 10 16 0.00 0.00
9:59 am 09:59 Mostly Cloudy 64 17.8 57 13.9 78 78 W 8 13 29.80 1009 10 16 0.00 0.00
10:51 am 10:51 Mostly Cloudy 66 18.9 59 15 78 78 W 9 15 29.80 1009 10 16 0.00 0.00
10:59 am 10:59 Mostly Cloudy 66 18.9 59 15 78 78 W 10 17 29.81 1010 10 16 0.00 0.00
11:28 am 11:28 Mostly Cloudy 67 19.4 59 15 76 76 WNW 9 15 29.80 1009 10 16 0.00 0.00
11:59 am 11:59 Mostly Cloudy 66 18.9 59 15 78 78 W 10 17 29.81 1010 10 16 0.00 0.00
12:59 pm 12:59 Mostly Cloudy 68 20 58 14.4 70 70 WNW 9 15 29.81 1010 10 16 0.00 0.00
1:59 pm 13:59 Cloudy 68 20 58 14.4 70 70 WNW 9 15 29.80 1009 10 16 0.00 0.00
2:06 pm 14:06 Cloudy 68 20 59 15 73 73 W 9 15 29.80 1009 10 16 0.00 0.00
2:59 pm 14:59 Partly Cloudy 69 20.6 58 14.4 68 68 W 8 13 29.79 1009 10 16 0.00 0.00
3:59 pm 15:59 Mostly Cloudy 72 22.2 59 15 64 64 WNW 7 11 29.80 1009 10 16 0.00 0.00
4:59 pm 16:59 Partly Cloudy 72 22.2 57 13.9 59 59 W 5 7 29.80 1009 10 16 0.00 0.00
5:59 pm 17:59 Mostly Sunny 74 23.3 56 13.3 54 54 Calm 29.80 1009 10 16 0.00 0.00
6:59 pm 18:59 Mostly Sunny 72 22.2 56 13.3 57 57 Calm 29.82 1010 10 16 0.00 0.00
7:59 pm 19:59 Partly Cloudy 67 19.4 57 13.9 71 71 ESE 7 11 29.83 1010 10 16 0.00 0.00
8:59 pm 20:59 Partly Cloudy 66 18.9 59 15 78 78 SE 6 9 29.84 1011 10 16 0.00 0.00
9:59 pm 21:59 Mostly Clear 65 18.3 59 15 81 81 SSE 7 11 29.85 1011 10 16 0.00 0.00
10:59 pm 22:59 Mostly Clear 64 17.8 59 15 84 84 SSE 6 9 29.86 1011 10 16 0.00 0.00
11:59 pm 23:59 Mostly Clear 64 17.8 59 15 84 84 SSE 7 11 29.85 1011 10 16 0.00 0.00

Powered by AerisWeather